Powrót do katalogu

ONEWEB-0362

AktywnyŁącznośćPO
NORAD 49288·PAYLOAD·🇬🇧 United Kingdom

Wystrzelony Oct 14, 2021 z Vostochny Cosmodrome

Loading…

Następne Przeloty (najbliższe 24 godziny)

TLE

ŚwieżeSource: CelesTrak SupGP

Epoka: Sep 14, 2026, 19:35 UTC

1 49288C 21090K   26257.81613843 -.00000587  00000+0 -14671-2 0  2578
2 49288  87.9103 287.1213 0001722  91.2587  20.2495 13.19723719    15

Śledź ONEWEB-0362 w czasie rzeczywistym z AllMySat

Download on the App Store